Savanna, IL

6:44 AM CST on February 24, 2017 (GMT -0600)
Tri-Township

Weather History for KSFY - March, 2014

Change the Weather History Date:

Tuesday, March 4, 2014

  Actual Average (KCWI) Record (KCWI)
Temperature  
Mean Temperature 18 °F -  
Max Temperature 28 °F 43 °F 68 °F (1983)
Min Temperature 9 °F 25 °F -11 °F (2002)
Degree Days  
Heating Degree Days 46    
Moisture  
Dew Point 9 °F    
Average Humidity 67    
Maximum Humidity 80    
Minimum Humidity 44    
Precipitation  
Precipitation 0.00 in - - ()
Sea Level Pressure  
Sea Level Pressure 30.23 in    
Wind  
Wind Speed 5 mph (ESE)    
Max Wind Speed 12 mph    
Max Gust Speed -    
Visibility 10 miles    
Events Snow    
Averages and records for this station are not official NWS values.
T = Trace of Precipitation, MM = Missing Value Source: NWS Daily Summary

Daily Weather History Graph

Daily Weather History Graph

Search for Another Location

Airport or City:

Trip Planner

Search our weather history database for the weather conditions in past years. The results will help you decide how hot, cold, wet, or windy it might be!

Date:

Astronomy

Mar. 04, 2014 Rise Set
Actual Time 6:30 AM CST 5:54 PM CST
Civil Twilight 6:02 AM CST 6:22 PM CST
Nautical Twilight 5:30 AM CST 6:54 PM CST
Astronomical Twilight 4:58 AM CST 7:27 PM CST
Moon 8:12 AM CST (3/4) 10:06 PM CST (3/4)
Length of Visible Light 12h 19m
Length of Day
11h 23m
Waxing Crescent, 15% of the Moon is Illuminated
Mar 4
Waxing Crescent
Mar 8
First Quarter
Mar 16
Full
Mar 23
Last Quarter
Mar 30
New

Hourly Weather History & Observations

Time (CST) Temp. Windchill Dew Point Humidity Pressure Visibility Wind Dir Wind Speed Gust Speed Precip Events Conditions
12:15 AM 9.3 °F -2.8 °F 2.7 °F 74% 30.32 in 10.0 mi ESE 8.1 mph - N/A   Overcast
12:35 AM 9.9 °F 1.6 °F 2.3 °F 71% 30.32 in 10.0 mi SE 4.6 mph - N/A   Overcast
12:55 AM 10.4 °F - 3.2 °F 73% 30.32 in 10.0 mi Calm Calm - N/A   Overcast
1:15 AM 10.2 °F - 3.6 °F 74% 30.33 in 3.0 mi Calm Calm - N/A Snow Light Snow
1:35 AM 10.4 °F - 4.3 °F 76% 30.31 in 10.0 mi Calm Calm - N/A   Overcast
1:55 AM 11.1 °F 3.1 °F 4.8 °F 76% 30.30 in 7.0 mi SSE 4.6 mph - N/A   Overcast
2:15 AM 11.3 °F 1.9 °F 5.5 °F 78% 30.30 in 10.0 mi SSE 5.8 mph - N/A   Overcast
2:35 AM 11.3 °F 1.9 °F 6.1 °F 80% 30.30 in 10.0 mi South 5.8 mph - N/A   Overcast
2:55 AM 11.8 °F 5.7 °F 6.1 °F 78% 30.29 in 10.0 mi South 3.5 mph - N/A   Overcast
3:15 AM 12.0 °F - 5.7 °F 76% 30.29 in 10.0 mi Calm Calm - N/A   Overcast
3:35 AM 12.2 °F 4.3 °F 5.9 °F 76% 30.29 in 10.0 mi SSE 4.6 mph - N/A   Overcast
3:55 AM 12.7 °F 2.4 °F 6.8 °F 77% 30.28 in 10.0 mi SSE 6.9 mph - N/A   Overcast
4:15 AM 12.9 °F 1.6 °F 6.3 °F 75% 30.26 in 10.0 mi SSE 8.1 mph - N/A   Overcast
4:35 AM 12.9 °F 0.7 °F 6.1 °F 74% 30.27 in 10.0 mi SSE 9.2 mph - N/A   Overcast
4:55 AM 13.1 °F 1.8 °F 6.4 °F 75% 30.27 in 10.0 mi SSE 8.1 mph - N/A   Overcast
5:15 AM 13.1 °F 4.0 °F 6.6 °F 75% 30.26 in 10.0 mi South 5.8 mph - N/A   Overcast
5:35 AM 13.5 °F 3.3 °F 6.6 °F 74% 30.26 in 10.0 mi SSE 6.9 mph - N/A   Overcast
5:55 AM 13.1 °F 2.8 °F 6.8 °F 76% 30.26 in 10.0 mi SSE 6.9 mph - N/A   Overcast
6:07 AM 12.2 °F 2.9 °F 6.8 °F 79% 30.26 in 10.0 mi SE 5.8 mph - N/A   Overcast
6:15 AM 13.1 °F 1.8 °F 6.8 °F 76% 30.25 in 10.0 mi SE 8.1 mph - N/A   Overcast
6:35 AM 12.9 °F 3.8 °F 6.8 °F 77% 30.24 in 10.0 mi SSE 5.8 mph - N/A   Overcast
6:55 AM 11.7 °F 2.3 °F 5.7 °F 77% 30.24 in 10.0 mi SSE 5.8 mph - N/A   Mostly Cloudy
7:15 AM 10.4 °F 0.8 °F 4.6 °F 78% 30.25 in 10.0 mi South 5.8 mph - N/A   Scattered Clouds
7:35 AM 10.4 °F 2.2 °F 4.1 °F 76% 30.24 in 10.0 mi SSE 4.6 mph - N/A   Clear
7:55 AM 10.4 °F 0.8 °F 4.1 °F 76% 30.23 in 10.0 mi SSE 5.8 mph - N/A   Clear
8:15 AM 13.6 °F 1.6 °F 6.3 °F 72% 30.23 in 10.0 mi South 9.2 mph - N/A   Scattered Clouds
8:35 AM 14.9 °F 5.0 °F 7.0 °F 71% 30.24 in 10.0 mi South 6.9 mph - N/A   Clear
8:55 AM 15.6 °F 8.3 °F 7.3 °F 70% 30.23 in 10.0 mi SSE 4.6 mph - N/A   Clear
9:15 AM 16.0 °F 10.4 °F 7.9 °F 70% 30.22 in 10.0 mi SSE 3.5 mph - N/A   Scattered Clouds
9:35 AM 16.5 °F 9.4 °F 8.4 °F 70% 30.22 in 10.0 mi SSE 4.6 mph - N/A   Scattered Clouds
9:55 AM 17.8 °F 9.6 °F 8.8 °F 68% 30.22 in 10.0 mi SE 5.8 mph - N/A   Clear
10:15 AM 18.3 °F 10.2 °F 9.0 °F 67% 30.21 in 10.0 mi SE 5.8 mph - N/A   Clear
10:35 AM 19.2 °F 11.3 °F 9.1 °F 65% 30.22 in 10.0 mi SE 5.8 mph - N/A   Clear
10:55 AM 19.9 °F 12.1 °F 9.3 °F 63% 30.21 in 10.0 mi SSE 5.8 mph - N/A   Clear
11:15 AM 20.5 °F 15.6 °F 9.3 °F 62% 30.22 in 10.0 mi SE 3.5 mph - N/A   Clear
11:35 AM 21.7 °F 17.0 °F 9.9 °F 60% 30.21 in 10.0 mi SE 3.5 mph - N/A   Clear
11:55 AM 22.5 °F 17.8 °F 9.3 °F 57% 30.22 in 10.0 mi SE 3.5 mph - N/A   Clear
12:15 PM 22.8 °F 16.7 °F 10.8 °F 60% 30.21 in 10.0 mi SE 4.6 mph - N/A   Clear
12:35 PM 23.9 °F 19.5 °F 10.9 °F 58% 30.21 in 10.0 mi SE 3.5 mph - N/A   Clear
12:55 PM 23.9 °F 19.5 °F 10.4 °F 56% 30.19 in 10.0 mi ESE 3.5 mph - N/A   Clear
1:15 PM 24.6 °F 20.3 °F 10.4 °F 55% 30.20 in 10.0 mi East 3.5 mph - N/A   Clear
1:35 PM 25.3 °F - 10.2 °F 53% 30.19 in 10.0 mi Calm Calm - N/A   Clear
1:55 PM 24.6 °F 20.3 °F 9.7 °F 53% 30.18 in 10.0 mi ENE 3.5 mph - N/A   Clear
2:15 PM 26.4 °F - 9.5 °F 49% 30.17 in 10.0 mi Calm Calm - N/A   Clear
2:35 PM 26.1 °F - 8.8 °F 48% 30.17 in 10.0 mi Calm Calm - N/A   Clear
2:55 PM 25.5 °F - 8.6 °F 49% 30.16 in 10.0 mi Calm Calm - N/A   Clear
3:15 PM 26.4 °F - 8.1 °F 46% 30.17 in 10.0 mi Calm Calm - N/A   Clear
3:30 PM 27.5 °F - 8.8 °F 45% 30.16 in 10.0 mi Calm Calm - N/A   Mostly Cloudy
3:55 PM 28.4 °F - 8.8 °F 44% 30.16 in 10.0 mi Calm Calm - N/A   Mostly Cloudy
4:15 PM 27.3 °F - 8.4 °F 45% 30.15 in 10.0 mi Calm Calm - N/A   Scattered Clouds
4:35 PM 24.6 °F 16.7 °F 11.3 °F 57% 30.16 in 10.0 mi East 6.9 mph - N/A   Clear
4:55 PM 23.9 °F 18.0 °F 11.8 °F 60% 30.16 in 10.0 mi NE 4.6 mph - N/A   Mostly Cloudy
5:15 PM 23.9 °F 15.0 °F 12.7 °F 62% 30.16 in 10.0 mi ENE 8.1 mph - N/A   Overcast
5:35 PM 22.6 °F 11.3 °F 12.6 °F 65% 30.17 in 10.0 mi East 11.5 mph - N/A   Overcast
5:55 PM 22.1 °F 13.7 °F 12.0 °F 65% 30.19 in 10.0 mi ENE 6.9 mph - N/A   Overcast
6:15 PM 21.2 °F 13.6 °F 11.7 °F 67% 30.20 in 10.0 mi NE 5.8 mph - N/A   Overcast
6:35 PM 21.2 °F 14.9 °F 12.4 °F 69% 30.19 in 10.0 mi ENE 4.6 mph - N/A   Overcast
6:55 PM 21.6 °F 14.0 °F 11.5 °F 65% 30.19 in 10.0 mi ENE 5.8 mph - N/A   Mostly Cloudy
7:15 PM 21.2 °F 10.1 °F 12.2 °F 68% 30.19 in 10.0 mi ENE 10.4 mph - N/A   Scattered Clouds
7:35 PM 21.2 °F 13.6 °F 12.4 °F 69% 30.19 in 10.0 mi NE 5.8 mph - N/A   Mostly Cloudy
7:55 PM 20.8 °F 14.4 °F 11.3 °F 67% 30.20 in 10.0 mi ENE 4.6 mph - N/A   Mostly Cloudy
8:15 PM 20.3 °F 15.4 °F 10.4 °F 66% 30.21 in 10.0 mi NE 3.5 mph - N/A   Scattered Clouds
8:35 PM 19.9 °F 12.1 °F 10.4 °F 67% 30.21 in 10.0 mi NE 5.8 mph - N/A   Scattered Clouds
8:55 PM 19.2 °F 11.3 °F 9.9 °F 67% 30.21 in 10.0 mi NE 5.8 mph - N/A   Mostly Cloudy
9:15 PM 19.2 °F 10.2 °F 10.8 °F 70% 30.21 in 10.0 mi NE 6.9 mph - N/A   Scattered Clouds
9:35 PM 20.8 °F 11.2 °F 11.8 °F 68% 30.21 in 10.0 mi NE 8.1 mph - N/A   Mostly Cloudy
9:55 PM 21.2 °F 10.1 °F 12.7 °F 70% 30.21 in 10.0 mi ENE 10.4 mph - N/A   Overcast
10:15 PM 21.2 °F 10.1 °F 12.9 °F 70% 30.21 in 10.0 mi NE 10.4 mph - N/A   Overcast
10:35 PM 21.9 °F 12.5 °F 11.5 °F 64% 30.22 in 10.0 mi NE 8.1 mph - N/A   Mostly Cloudy
10:55 PM 21.7 °F 12.3 °F 11.3 °F 64% 30.22 in 10.0 mi NE 8.1 mph - N/A   Mostly Cloudy
11:15 PM 21.7 °F 12.3 °F 11.8 °F 66% 30.22 in 10.0 mi ENE 8.1 mph - N/A   Overcast
11:35 PM 21.9 °F 11.7 °F 12.6 °F 67% 30.24 in 10.0 mi ENE 9.2 mph - N/A   Overcast
11:55 PM 21.7 °F 11.5 °F 12.9 °F 69% 30.24 in 10.0 mi ENE 9.2 mph - N/A   Overcast